Location: RyutenAO
(34.8939°N, 134.0022°E)
Time: 09:21:46
(UTC+09:00)

Oscar 19 - Pass Details

Date: 05 April 2023
Orbit: 773 x 788 km, 98.8° (Epoch: 29 May)

Event Time Altitude Azimuth Distance (km) Brightness Sun altitude
Rises 03:04:43 0° 31° (NNE) 3,270 14.8 -31.7°
Reaches altitude 10° 03:07:39 10° 48° (NE) 2,341 14.0 -31.2°
Maximum altitude 03:11:23 20° 95° (E) 1,753 12.9 -30.5°
Drops below altitude 10° 03:15:05 10° 141° (SE) 2,336 13.1 -29.9°
Enters shadow 03:15:32 - 145° (SE) 2,463 13.2 -29.8°
